Date String (YYYY-MM-DD hh:mm:ss) UTC,Instrument flags,Ambient pressure (hPa),Sample flow (lpm),Bypass flow (lpm),Sample temperature (°C),Ambient temperature (°C),ASC tube jacket temperature (°C),LED temperature (°C),Box temperature (°C),Sample RH (%),Span deviation,Mass concentration (μg/m³),Mass concentration (μg/m³),Mass concentration (μg/m³)
DateTimeUTC,F1_M11,P_M11,Q1_M11,Q2_M11,T1_M11,T2_M11,T3_M11,T4_M11,T5_M11,U1_M11,ZSPAN_M11,X2_M11,X0_M11,X1_M11
2021-08-27 08:00:00,,0828.0,5.00,0.00,29.5,28.6,00.0,38.7,31.3,22.0,0000.0,0002.61,0007.86,0001.33
2021-08-27 08:01:00,,0828.0,5.01,0.00,29.5,28.6,00.0,38.7,31.3,21.7,0000.0,0002.76,0009.72,0001.35
2021-08-27 08:02:00,,0828.0,5.01,0.00,29.5,28.6,00.0,38.7,31.3,21.5,0000.0,0002.87,0010.46,0001.39
2021-08-27 08:03:00,,0828.0,5.00,0.00,29.5,28.7,00.0,38.7,31.3,21.4,0000.0,0002.93,0010.83,0001.41
2021-08-27 08:04:00,,0827.9,4.99,0.00,29.5,28.7,00.0,38.7,31.3,21.4,0000.0,0002.96,0010.88,0001.41
2021-08-27 08:05:00,,0827.9,5.00,0.00,29.6,28.7,00.0,38.7,31.3,21.4,0000.0,0003.00,0010.95,0001.42
2021-08-27 08:06:00,,0828.0,5.00,0.00,29.6,28.7,00.0,38.7,31.3,21.2,0000.0,0003.01,0011.04,0001.41
2021-08-27 08:07:00,,0827.8,5.00,0.00,29.6,28.7,00.0,38.7,31.3,21.4,0000.0,0002.94,0010.96,0001.40
2021-08-27 08:08:00,,0827.8,5.01,0.00,29.6,28.7,00.0,38.7,31.4,21.5,0000.0,0002.76,0010.20,0001.41
2021-08-27 08:09:00,,0827.7,5.00,0.00,29.6,28.7,00.0,38.7,31.4,21.5,0000.0,0002.55,0009.60,0001.40
2021-08-27 08:10:00,,0827.7,4.99,0.00,29.7,28.7,00.0,38.8,31.4,21.4,0000.0,0002.40,0009.34,0001.39
2021-08-27 08:11:00,,0827.7,5.01,0.00,29.7,28.7,00.0,38.8,31.4,21.5,0000.0,0002.22,0008.61,0001.37
2021-08-27 08:12:00,,0827.6,4.99,0.00,29.7,28.7,00.0,38.8,31.5,21.5,0000.0,0002.01,0005.84,0001.32
2021-08-27 08:13:00,,0827.6,5.01,0.00,29.7,28.7,00.0,38.8,31.5,21.5,0000.0,0001.82,0004.26,0001.27
2021-08-27 08:14:00,,0827.5,5.00,0.00,29.8,28.8,00.0,38.8,31.5,21.5,0000.0,0001.72,0003.65,0001.25
2021-08-27 08:15:00,,0827.5,5.01,0.00,29.8,28.8,00.0,38.8,31.5,21.5,0000.0,0001.65,0003.63,0001.24
2021-08-27 08:16:00,,0827.5,5.00,0.00,29.8,28.8,00.0,38.9,31.5,21.4,0000.0,0001.57,0003.42,0001.23
2021-08-27 08:17:00,,0827.6,4.99,0.00,29.9,28.9,00.0,38.9,31.6,21.5,0000.0,0001.51,0003.10,0001.21
2021-08-27 08:18:00,,0827.6,5.01,0.00,29.9,28.9,00.0,38.9,31.6,21.4,0000.0,0001.50,0002.80,0001.21
2021-08-27 08:19:00,,0827.7,5.01,0.00,29.9,28.9,00.0,38.9,31.7,21.5,0000.0,0001.50,0002.80,0001.21
2021-08-27 08:20:00,,0827.8,5.00,0.00,29.9,29.0,00.0,38.9,31.7,21.5,0000.0,0001.49,0002.74,0001.22
2021-08-27 08:21:00,,0827.8,5.00,0.00,29.9,29.0,00.0,38.9,31.7,21.5,0000.0,0001.52,0003.24,0001.22
2021-08-27 08:22:00,,0827.8,5.01,0.00,29.9,28.0,00.0,38.9,31.4,21.3,0000.0,0001.53,0003.39,0001.23
2021-08-27 08:23:00,,0827.7,5.00,0.00,29.8,26.4,00.0,38.9,31.0,21.4,0000.0,0001.55,0003.38,0001.25
2021-08-27 08:24:00,,0827.7,5.00,0.00,29.6,26.3,00.0,38.9,31.0,21.3,0000.0,0001.56,0003.37,0001.26
2021-08-27 08:25:00,,0827.6,5.00,0.00,29.6,26.6,00.0,38.8,31.0,21.2,0000.0,0001.55,0003.28,0001.26
2021-08-27 08:26:00,,0827.6,5.01,0.00,29.5,27.0,00.0,38.8,31.0,21.2,0000.0,0001.53,0002.91,0001.27
2021-08-27 08:27:00,,0827.6,4.99,0.00,29.5,27.4,00.0,38.8,31.1,21.2,0000.0,0001.55,0002.97,0001.28
2021-08-27 08:28:00,,0827.6,5.01,0.00,29.5,27.6,00.0,38.8,31.1,21.3,0000.0,0001.57,0002.99,0001.29
2021-08-27 08:29:00,,0827.7,5.00,0.00,29.5,27.8,00.0,38.7,31.1,21.4,0000.0,0001.62,0003.14,0001.29
2021-08-27 08:30:00,,0827.6,5.00,0.00,29.5,28.0,00.0,38.7,31.2,21.4,0000.0,0001.61,0003.13,0001.29
2021-08-27 08:31:00,,0827.6,5.00,0.00,29.5,28.1,00.0,38.7,31.2,21.5,0000.0,0001.61,0003.11,0001.29
2021-08-27 08:32:00,,0827.6,4.99,0.00,29.5,28.2,00.0,38.7,31.3,21.4,0000.0,0001.57,0002.63,0001.30
2021-08-27 08:33:00,,0827.6,5.00,0.00,29.6,28.3,00.0,38.7,31.3,21.4,0000.0,0001.56,0002.30,0001.29
2021-08-27 08:34:00,,0827.7,4.99,0.00,29.6,28.3,00.0,38.7,31.3,21.3,0000.0,0001.55,0002.27,0001.30
2021-08-27 08:35:00,,0827.7,5.01,0.00,29.6,28.4,00.0,38.7,31.3,21.4,0000.0,0001.55,0002.27,0001.30
2021-08-27 08:36:00,,0827.7,5.00,0.00,29.6,28.5,00.0,38.7,31.4,21.3,0000.0,0001.57,0002.27,0001.32
2021-08-27 08:37:00,,0827.7,4.99,0.00,29.6,28.5,00.0,38.7,31.4,21.4,0000.0,0001.63,0002.35,0001.34
2021-08-27 08:38:00,,0827.7,4.99,0.00,29.6,28.6,00.0,38.7,31.4,21.4,0000.0,0001.63,0002.26,0001.35
2021-08-27 08:39:00,,0827.7,5.01,0.00,29.6,28.7,00.0,38.7,31.4,21.2,0000.0,0001.64,0002.27,0001.36
2021-08-27 08:40:00,,0827.7,5.00,0.00,29.6,28.7,00.0,38.7,31.4,21.2,0000.0,0001.62,0002.18,0001.37
2021-08-27 08:41:00,,0827.7,5.01,0.00,29.6,28.7,00.0,38.8,31.4,21.2,0000.0,0001.61,0002.14,0001.38
2021-08-27 08:42:00,,0827.7,4.99,0.00,29.6,28.7,00.0,38.8,31.4,21.3,0000.0,0001.65,0002.23,0001.39
2021-08-27 08:43:00,,0827.7,5.02,0.00,29.7,28.8,00.0,38.8,31.4,21.3,0000.0,0001.67,0002.25,0001.42
2021-08-27 08:44:00,,0827.7,5.01,0.00,29.7,28.8,00.0,38.8,31.4,21.3,0000.0,0001.71,0002.29,0001.44
2021-08-27 08:45:00,,0827.7,4.99,0.00,29.7,28.8,00.0,38.8,31.5,21.3,0000.0,0001.73,0002.30,0001.47
2021-08-27 08:46:00,,0827.7,5.00,0.00,29.7,28.8,00.0,38.8,31.4,21.3,0000.0,0001.75,0003.42,0001.49
2021-08-27 08:47:00,,0827.7,5.00,0.00,29.7,28.8,00.0,38.8,31.5,21.4,0000.0,0001.78,0003.79,0001.51
2021-08-27 08:48:00,,0827.7,5.00,0.00,29.7,28.8,00.0,38.8,31.5,21.1,0000.0,0001.74,0003.74,0001.51
2021-08-27 08:49:00,,0827.7,4.99,0.00,29.7,28.9,00.0,38.8,31.4,20.9,0000.0,0001.73,0003.71,0001.51
2021-08-27 08:50:00,,0827.7,5.00,0.00,29.7,28.9,00.0,38.8,31.5,21.1,0000.0,0001.73,0003.71,0001.52
2021-08-27 08:51:00,,0827.7,5.00,0.00,29.7,28.9,00.0,38.8,31.4,20.9,0000.0,0001.76,0003.97,0001.54
2021-08-27 08:52:00,,0827.7,5.01,0.00,29.7,28.9,00.0,38.8,31.5,21.0,0000.0,0001.77,0003.95,0001.57
2021-08-27 08:53:00,,0827.6,5.00,0.00,29.7,28.9,00.0,38.8,31.5,20.9,0000.0,0001.81,0004.06,0001.60
2021-08-27 08:54:00,,0827.6,5.00,0.00,29.7,28.9,00.0,38.8,31.5,20.7,0000.0,0001.86,0004.18,0001.63
2021-08-27 08:55:00,,0827.6,5.01,0.00,29.7,28.9,00.0,38.8,31.5,20.7,0000.0,0001.88,0004.22,0001.65
2021-08-27 08:56:00,,0827.6,4.99,0.00,29.7,29.0,00.0,38.8,31.5,20.6,0000.0,0001.88,0004.22,0001.65
2021-08-27 08:57:00,,0827.5,5.00,0.00,29.7,28.9,00.0,38.9,31.5,20.5,0000.0,0001.90,0003.65,0001.66
2021-08-27 08:58:00,,0827.6,4.99,0.00,29.8,29.0,00.0,38.9,31.5,20.5,0000.0,0001.90,0002.91,0001.66
2021-08-27 08:59:00,,0827.6,5.02,0.00,29.8,29.0,00.0,38.9,31.5,20.5,0000.0,0001.89,0002.82,0001.65
